Location: Newark
(7.0858°N, 171.3717°E)
Time: 13:46:20
(UTC+00:00)

A-11 Canister half - Pass Details

Date: 06 August 2021
Orbit: 1526 x 1683 km, 47.3° (Epoch: 26 September)

Event Time Altitude Azimuth Distance (km) Brightness Sun altitude
Rises 06:59:34 0° 318° (NW) 4,804 12.8 -2.5°
Reaches altitude 10° 07:02:42 10° 318° (NW) 3,798 12.2 -3.3°
Maximum altitude 07:12:20 85° 230° (SW) 1,563 9.1 -5.5°
Drops below altitude 10° 07:21:41 10° 143° (SE) 3,699 10.5 -7.8°
Enters shadow 07:24:18 - 142° (SE) 4,545 11.0 -8.4°
